| time (UTC) | temp C | wind direction | speed KPH | gust KPH | rain 1hr cm | rain 24hr cm | rain mn cm | humidity % | barometer mb |
| 20260503213100 | 16 | 190 | 16.1 | 35.4 | 0.00 | 0.00 | 0.00 | 39 | 1014.5 |
| 20260503211610 | 16 | 203 | 19.3 | 33.8 | 0.00 | 0.00 | 0.00 | 39 | 1014.3 |
| 20260503210059 | 16 | 224 | 17.7 | 37.0 | 0.00 | 0.00 | 0.00 | 41 | 1014.2 |
| 20260503204602 | 16 | 223 | 17.7 | 33.8 | 0.00 | 0.00 | 0.00 | 41 | 1014.5 |
| 20260503203100 | 16 | 227 | 16.1 | 37.0 | 0.00 | 0.00 | 0.00 | 42 | 1014.5 |
| 20260503201557 | 15 | 239 | 24.1 | 40.2 | 0.00 | 0.00 | 0.00 | 39 | 1014.6 |
| 20260503200056 | 15 | 196 | 22.5 | 37.0 | 0.00 | 0.00 | 0.00 | 40 | 1014.9 |
| 20260503194557 | 16 | 235 | 12.9 | 35.4 | 0.00 | 0.00 | 0.00 | 41 | 1015.1 |
| 20260503193115 | 15 | 177 | 19.3 | 38.6 | 0.00 | 0.00 | 0.00 | 39 | 1015.5 |
| 20260503191600 | 15 | 263 | 14.5 | 41.8 | 0.00 | 0.00 | 0.00 | 40 | 1016.0 |
| 20260503190058 | 15 | 208 | 16.1 | 32.2 | 0.00 | 0.00 | 0.00 | 39 | 1016.0 |
| 20260503184559 | 15 | 217 | 17.7 | 35.4 | 0.00 | 0.00 | 0.00 | 42 | 1016.3 |
| 20260503183105 | 15 | 209 | 20.9 | 41.8 | 0.00 | 0.00 | 0.00 | 42 | 1016.5 |
| 20260503181622 | 14 | 238 | 19.3 | 37.0 | 0.00 | 0.00 | 0.00 | 40 | 1016.6 |
| 20260503180134 | 14 | 176 | 12.9 | 32.2 | 0.00 | 0.00 | 0.00 | 41 | 1016.8 |
| 20260503174559 | 14 | 182 | 16.1 | 30.6 | 0.00 | 0.00 | 0.00 | 43 | 1016.9 |
| 20260503173102 | 13 | 242 | 12.9 | 35.4 | 0.00 | 0.00 | 0.00 | 43 | 1017.4 |
| 20260503171558 | 13 | 210 | 20.9 | 32.2 | 0.00 | 0.00 | 0.00 | 45 | 1017.5 |
| 20260503170104 | 13 | 243 | 16.1 | 33.8 | 0.00 | 0.00 | 0.00 | 42 | 1017.9 |
| 20260503150105 | 11 | 229 | 12.9 | 25.7 | 0.00 | 0.00 | 0.00 | 53 | 1019.2 |
| 20260503120109 | 2 | 229 | 6.4 | 11.3 | 0.00 | 0.00 | 0.00 | 82 | 1019.1 |
| 20260503100125 | 1 | 225 | 4.8 | 8.0 | 0.00 | 0.00 | 0.00 | 89 | 1018.1 |
| 20260503081600 | 2 | 238 | 4.8 | 8.0 | 0.00 | 0.00 | 0.00 | 88 | 1018.0 |
| 20260503071606 | 3 | 248 | 8.0 | 11.3 | 0.00 | 0.00 | 0.00 | 87 | 1017.7 |
| 20260503070109 | 3 | 250 | 6.4 | 11.3 | 0.00 | 0.00 | 0.00 | 87 | 1017.8 |
| 20260503060116 | 4 | 236 | 6.4 | 9.7 | 0.00 | 0.00 | 0.00 | 78 | 1018.1 |
| 20260503054558 | 5 | 242 | 4.8 | 8.0 | 0.00 | 0.00 | 0.00 | 73 | 1018.2 |
| 20260503053058 | 5 | 241 | 4.8 | 8.0 | 0.00 | 0.00 | 0.00 | 74 | 1018.2 |
| 20260503051556 | 5 | 241 | 6.4 | 8.0 | 0.00 | 0.00 | 0.00 | 67 | 1018.1 |
| 20260503050057 | 6 | 5 | 3.2 | 6.4 | 0.00 | 0.00 | 0.00 | 60 | 1018.0 |
| 20260503044625 | 6 | 0 | 0.0 | 0.0 | 0.00 | 0.00 | 0.00 | 59 | 1018.1 |
| 20260503043058 | 7 | 0 | 0.0 | 4.8 | 0.00 | 0.00 | 0.00 | 57 | 1018.3 |
| 20260503041600 | 7 | 9 | 3.2 | 6.4 | 0.00 | 0.00 | 0.00 | 56 | 1018.2 |
| 20260503040107 | 7 | 9 | 4.8 | 6.4 | 0.00 | 0.00 | 0.00 | 56 | 1018.2 |
| 20260503034602 | 7 | 5 | 4.8 | 8.0 | 0.00 | 0.00 | 0.00 | 57 | 1018.3 |
| 20260503033057 | 7 | 360 | 4.8 | 8.0 | 0.00 | 0.00 | 0.00 | 57 | 1018.2 |
| 20260503031557 | 7 | 5 | 6.4 | 9.7 | 0.00 | 0.00 | 0.00 | 56 | 1018.2 |
| 20260503030106 | 7 | 5 | 6.4 | 9.7 | 0.00 | 0.00 | 0.00 | 56 | 1018.1 |
| 20260503024603 | 7 | 355 | 6.4 | 8.0 | 0.00 | 0.00 | 0.00 | 57 | 1018.2 |
| 20260503023101 | 7 | 5 | 4.8 | 9.7 | 0.00 | 0.00 | 0.00 | 57 | 1018.0 |
| 20260503021558 | 7 | 355 | 6.4 | 11.3 | 0.00 | 0.00 | 0.00 | 56 | 1017.8 |
| 20260503020114 | 7 | 5 | 6.4 | 12.9 | 0.00 | 0.00 | 0.00 | 56 | 1017.6 |
| 20260503014620 | 7 | 352 | 8.0 | 12.9 | 0.00 | 0.00 | 0.00 | 55 | 1017.1 |
| 20260503013118 | 8 | 355 | 8.0 | 16.1 | 0.00 | 0.00 | 0.00 | 54 | 1017.0 |
| 20260503011609 | 8 | 347 | 8.0 | 14.5 | 0.00 | 0.00 | 0.00 | 53 | 1016.9 |
| 20260503010105 | 8 | 346 | 8.0 | 17.7 | 0.00 | 0.00 | 0.00 | 52 | 1016.7 |
| 20260503004613 | 8 | 345 | 11.3 | 19.3 | 0.00 | 0.00 | 0.00 | 52 | 1016.6 |
| 20260503003106 | 9 | 355 | 8.0 | 20.9 | 0.00 | 0.00 | 0.00 | 51 | 1016.6 |
| 20260503001600 | 10 | 348 | 8.0 | 20.9 | 0.00 | 0.00 | 0.00 | 50 | 1016.3 |
| 20260503000106 | 10 | 296 | 6.4 | 20.9 | 0.00 | 0.00 | 0.00 | 47 | 1016.2 |
| 20260502234619 | 10 | 325 | 8.0 | 24.1 | 0.00 | 0.00 | 0.00 | 47 | 1016.0 |
| 20260502233058 | 10 | 338 | 14.5 | 29.0 | 0.00 | 0.00 | 0.00 | 46 | 1015.9 |
| 20260502231556 | 10 | 348 | 16.1 | 25.7 | 0.00 | 0.00 | 0.00 | 45 | 1015.9 |
| 20260502230058 | 11 | 315 | 9.7 | 27.4 | 0.00 | 0.00 | 0.00 | 45 | 1016.0 |
| 20260502224603 | 11 | 351 | 12.9 | 27.4 | 0.00 | 0.00 | 0.00 | 45 | 1015.8 |
| 20260502223105 | 11 | 336 | 9.7 | 24.1 | 0.00 | 0.00 | 0.00 | 46 | 1015.8 |
| 20260502221603 | 11 | 291 | 11.3 | 22.5 | 0.00 | 0.00 | 0.00 | 46 | 1015.8 |
| 20260502214617 | 11 | 317 | 9.7 | 32.2 | 0.00 | 0.00 | 0.00 | 45 | 1015.6 |